Wind_Speed
19 19 19 19 20 20 20 20 21 21 21 20 19 18 18 18 18 17 18 19 20 21 23 25 28 30 30 29 27 25 24 22 20 19 18 17 16 15 15 13 12 11 9
20 21 20 20 20 20 20 21 21 21 21 21 20 19 19 19 19 19 19 19 18 19 22 25 28 30 32 32 31 30 27 26 24 22 21 20 19 18 17 16 14 13 11
21 21 21 21 21 21 21 21 22 21 21 21 21 21 21 21 20 20 20 20 20 19 20 24 27 30 32 34 33 33 31 29 27 26 24 23 22 21 20 19 17 15 13
21 21 21 21 22 22 22 22 22 21 21 21 21 22 22 22 22 22 22 22 21 22 21 22 25 28 31 34 36 35 35 33 31 29 27 26 24 23 22 21 20 18 16
20 20 20 21 21 21 21 22 22 22 22 22 22 22 22 23 23 23 23 24 24 23 23 23 25 26 29 32 35 37 37 36 35 33 31 29 27 26 25 24 22 21 19
19 19 19 20 20 20 20 20 21 22 22 22 22 23 23 23 24 24 24 25 25 25 25 25 25 27 28 29 33 36 38 39 39 37 35 33 31 29 27 26 25 23 22
17 18 18 18 18 18 18 19 20 21 21 21 21 22 23 23 24 24 25 25 26 27 26 26 26 28 28 30 32 35 37 39 41 40 39 37 35 33 31 29 28 26 24
17 17 17 17 17 17 17 18 18 19 20 20 21 21 23 24 24 24 25 26 27 28 28 28 28 29 30 30 31 34 37 39 41 42 42 41 39 37 35 33 31 30 28
17 17 17 17 16 16 17 17 18 19 19 20 20 21 22 24 24 24 25 26 27 28 28 29 29 29 31 32 32 33 35 39 41 43 43 43 43 41 39 37 35 33 31
18 18 17 17 17 17 18 18 19 20 20 21 21 21 22 23 24 25 25 26 27 27 28 29 30 30 31 32 33 33 34 36 39 42 44 45 45 44 42 41 39 37 35
18 19 19 19 19 20 20 21 21 21 22 22 23 23 24 25 26 26 27 27 28 28 30 30 30 30 31 32 33 34 34 35 37 41 43 44 45 46 45 43 42 40 38
20 20 21 22 22 22 23 24 24 24 24 25 26 26 26 27 28 29 29 30 31 31 31 32 31 31 31 33 34 34 35 35 36 38 41 43 45 46 46 45 45 43 41
23 22 23 23 24 25 26 27 27 27 28 28 29 30 30 30 31 31 32 32 33 33 34 34 34 34 34 34 35 36 35 37 37 37 39 42 44 45 46 46 46 46 45
24 24 24 25 26 27 28 28 29 30 31 32 33 33 34 34 34 34 35 35 35 36 37 37 37 37 37 37 37 37 37 37 38 38 38 40 42 44 45 45 46 46 46
24 25 25 26 28 29 30 31 32 33 35 35 36 37 37 38 38 38 38 38 38 38 38 39 40 39 39 39 39 39 39 39 39 39 40 40 41 43 44 44 45 46 46
25 26 27 28 30 31 32 34 35 37 38 38 39 39 40 40 40 41 41 41 41 40 40 41 42 42 41 40 40 41 42 41 40 39 40 40 41 43 43 43 44 46 46
26 28 30 31 33 34 35 36 37 38 39 40 41 41 41 41 41 42 42 42 42 42 42 41 43 43 42 42 41 42 42 42 42 41 41 41 41 42 43 43 44 46 46
28 31 33 34 36 36 37 38 39 40 40 40 40 41 41 41 41 42 42 43 43 43 43 42 43 44 44 43 42 43 44 43 43 41 41 42 42 42 42 43 44 45 46
31 33 35 37 38 39 39 40 40 41 41 40 40 39 39 39 40 40 41 41 41 42 42 42 42 43 44 44 43 44 44 45 44 42 41 41 42 42 42 43 43 45 46
33 35 37 39 40 41 41 41 42 41 41 40 39 38 37 37 37 38 38 38 39 40 40 41 41 42 43 44 44 44 45 45 46 45 44 41 40 41 41 42 42 43 45
35 37 39 41 42 42 42 42 42 41 40 38 37 36 36 35 35 36 36 36 37 37 38 39 39 40 41 42 43 44 45 45 45 45 45 44 42 42 41 41 41 42 44
37 40 41 42 43 43 42 42 41 40 39 37 36 35 34 34 33 33 34 34 35 35 36 38 38 39 40 41 42 42 44 44 44 45 46 45 44 43 43 42 41 41 42
40 42 43 43 43 43 43 42 41 39 37 36 35 34 33 32 32 31 32 33 33 34 35 36 37 38 40 41 41 42 43 44 44 45 46 45 44 42 42 43 42 42 41
43 44 45 45 44 44 44 42 40 37 36 35 34 33 32 31 31 30 30 31 32 33 34 35 36 38 40 41 42 42 42 43 44 45 45 45 44 43 41 42 43 42 41
45 45 45 46 45 44 43 41 39 36 35 34 33 33 31 30 30 30 30 31 31 32 34 34 35 36 37 39 41 42 42 43 44 45 45 45 45 43 41 41 42 42 41
47 47 47 46 45 44 43 41 39 37 35 34 33 32 31 30 30 31 31 31 31 32 33 34 35 35 37 39 40 41 42 43 44 45 45 45 45 44 42 41 41 42 42
Wind_Direction
290 287 286 285 285 286 286 283 281 281 281 280 278 275 271 264 262 262 259 255 253 250 243 238 233 229 227 226 225 225 224 223 221 218 215 214 211 208 207 206 205 205 204
292 291 289 287 286 284 282 281 281 281 281 281 278 276 273 268 265 264 259 256 256 255 248 242 237 233 229 226 226 226 225 225 224 222 220 218 216 215 213 212 212 212 212
294 292 291 289 287 284 284 283 282 282 281 280 278 276 273 268 266 264 261 255 254 258 255 247 241 235 233 230 228 227 227 227 226 225 224 222 221 220 218 217 217 217 218
297 295 293 292 289 287 286 284 284 284 281 279 278 276 273 270 267 264 262 259 255 256 257 252 246 239 236 233 231 230 229 228 227 227 226 226 225 224 224 223 222 221 222
300 298 296 293 290 288 286 284 283 282 280 279 277 275 274 271 268 264 261 259 257 254 254 254 249 244 239 236 232 231 230 229 229 228 228 228 228 227 227 227 226 226 225
305 302 299 295 293 292 288 285 283 282 281 280 278 276 274 271 269 266 262 259 258 255 253 252 251 248 243 240 235 233 232 231 230 229 229 229 230 230 230 229 229 229 228
314 311 307 302 298 296 292 289 286 285 283 281 279 277 275 272 270 267 264 261 258 256 255 253 249 248 246 244 239 236 234 232 231 230 230 230 231 231 231 231 231 231 231
322 319 315 312 307 303 298 294 292 289 286 284 281 279 277 275 272 269 266 262 259 257 254 253 250 247 246 245 243 239 236 234 232 231 231 232 232 232 232 232 232 233 233
324 320 317 315 312 309 305 301 298 294 291 289 285 282 279 278 276 271 268 265 262 259 257 253 251 249 247 246 244 242 239 236 234 232 232 232 232 232 232 233 234 234 234
321 318 315 314 312 310 308 305 301 297 295 293 289 287 284 281 278 275 271 267 264 261 258 255 252 250 249 247 245 244 241 239 236 234 233 233 232 233 233 234 234 234 234
317 314 311 310 309 308 307 306 303 300 297 294 292 290 287 284 281 279 275 271 266 262 259 257 254 251 249 248 246 244 242 240 238 236 234 233 233 233 233 234 234 234 234
316 312 308 307 306 304 304 304 303 301 299 296 294 292 289 286 284 281 278 274 270 265 262 258 255 253 251 249 246 245 242 241 239 237 235 234 233 233 233 234 234 234 233
315 312 309 307 306 304 303 302 301 300 299 297 295 293 290 288 285 282 279 276 273 269 264 260 256 253 250 249 247 245 243 241 241 239 237 234 232 232 233 234 234 233 233
317 315 312 310 308 307 304 302 300 299 298 297 295 293 290 288 285 282 280 277 274 270 267 263 258 254 250 248 246 245 243 242 241 241 238 234 232 232 233 233 232 233 233
318 316 313 311 310 308 306 303 301 299 297 295 293 291 289 286 284 281 279 276 274 271 268 264 261 256 252 249 248 246 244 243 241 241 239 236 234 233 234 234 232 232 232
320 320 318 316 315 312 309 305 302 300 298 295 292 290 287 285 282 279 277 275 273 270 268 265 262 259 254 251 248 246 244 242 242 241 240 238 236 233 233 233 233 231 230
320 320 319 319 317 315 312 309 307 304 301 297 294 290 286 284 281 278 275 273 271 269 266 264 262 260 257 253 249 246 244 242 242 241 239 239 237 234 232 233 233 231 230
320 321 321 320 319 318 315 313 310 308 304 300 296 292 287 283 281 278 275 272 269 267 264 262 260 259 257 253 250 247 244 242 240 240 240 239 238 236 234 233 232 231 230
320 321 321 320 320 320 318 316 313 310 306 303 298 294 290 285 281 278 275 272 269 266 263 261 259 258 256 253 250 247 244 241 239 239 239 239 238 238 235 234 233 231 230
319 320 321 321 321 320 320 318 315 312 308 305 301 296 292 287 283 279 276 272 269 266 263 260 258 256 255 253 251 247 244 241 239 238 238 238 236 237 237 235 233 232 230
319 320 320 320 320 320 320 318 315 313 310 306 302 297 293 289 285 281 277 273 270 267 264 261 258 256 254 252 250 247 244 241 239 238 237 237 236 236 237 236 234 232 229
318 320 319 320 321 321 320 318 315 313 310 306 303 299 295 291 286 282 277 274 271 268 265 262 259 256 254 252 249 246 243 240 238 236 236 235 236 236 236 236 235 233 229
316 319 320 320 321 321 320 317 315 313 310 306 303 299 296 291 287 283 278 275 272 270 266 263 260 257 254 252 249 245 242 239 236 235 233 233 234 234 235 236 235 234 231
316 317 319 320 320 320 319 317 314 312 310 306 303 300 296 291 288 285 280 277 275 272 268 264 260 258 254 251 248 245 242 238 235 233 232 232 232 232 232 233 233 232 231
315 315 316 318 319 318 317 316 313 311 309 306 303 300 297 292 289 287 283 280 277 272 268 265 261 259 255 252 248 245 242 239 235 232 231 230 231 230 229 230 231 231 230
314 314 315 317 317 316 315 313 311 310 308 306 303 300 296 293 290 288 286 282 278 273 270 267 264 259 256 253 249 245 242 239 235 231 230 229 229 229 229 228 227 228 228
Height
5869 5869 5868 5868 5868 5867 5867 5867 5867 5867 5867 5867 5867 5868 5868 5868 5868 5869 5871 5872 5872 5874 5876 5878 5881 5884 5887 5891 5894 5896 5899 5902 5905 5907 5909 5912 5914 5917 5919 5921 5923 5925 5927
5865 5864 5864 5864 5863 5863 5863 5862 5862 5862 5862 5862 5863 5863 5864 5864 5865 5865 5866 5868 5869 5870 5871 5873 5876 5879 5882 5886 5889 5892 5895 5899 5902 5904 5907 5909 5912 5915 5917 5919 5922 5924 5926
5860 5859 5859 5859 5859 5858 5858 5857 5857 5857 5857 5857 5858 5858 5858 5859 5860 5860 5861 5863 5864 5865 5867 5869 5871 5874 5877 5880 5884 5887 5891 5895 5898 5901 5904 5907 5909 5912 5915 5917 5920 5922 5924
5856 5855 5855 5854 5853 5853 5853 5852 5852 5852 5852 5852 5852 5852 5853 5854 5855 5855 5856 5858 5859 5861 5862 5863 5865 5868 5871 5874 5878 5882 5886 5889 5893 5897 5900 5903 5906 5909 5912 5915 5917 5920 5922
5852 5851 5850 5849 5848 5848 5848 5847 5847 5847 5847 5847 5847 5847 5848 5848 5849 5850 5851 5852 5854 5855 5857 5858 5860 5862 5865 5868 5872 5876 5880 5884 5888 5892 5895 5899 5902 5906 5909 5911 5914 5917 5919
5849 5847 5846 5845 5844 5844 5843 5843 5842 5842 5842 5842 5841 5842 5842 5842 5843 5844 5845 5847 5848 5849 5851 5853 5855 5857 5859 5862 5865 5869 5873 5877 5881 5885 5890 5894 5898 5901 5904 5908 5911 5913 5916
5846 5844 5843 5842 5840 5840 5839 5838 5837 5837 5836 5836 5836 5836 5836 5836 5837 5838 5839 5840 5842 5843 5845 5847 5849 5851 5853 5855 5858 5862 5865 5869 5874 5878 5883 5888 5892 5896 5899 5903 5906 5909 5912
5843 5842 5840 5839 5837 5836 5835 5834 5833 5832 5831 5831 5831 5831 5831 5831 5832 5832 5833 5834 5835 5837 5839 5840 5842 5844 5847 5849 5852 5855 5858 5862 5866 5871 5876 5880 5885 5889 5893 5897 5901 5904 5908
5841 5839 5837 5836 5834 5833 5831 5830 5829 5828 5827 5826 5826 5825 5825 5825 5825 5826 5826 5827 5828 5829 5831 5833 5835 5837 5840 5842 5845 5847 5850 5854 5858 5863 5867 5872 5877 5882 5887 5891 5895 5899 5902
5839 5837 5835 5833 5831 5830 5828 5826 5825 5824 5822 5821 5820 5820 5819 5818 5818 5819 5820 5820 5821 5822 5823 5825 5828 5830 5832 5835 5838 5840 5843 5846 5850 5854 5859 5864 5869 5874 5879 5884 5888 5892 5896
5837 5834 5832 5830 5828 5826 5824 5822 5821 5819 5818 5816 5815 5814 5813 5812 5811 5812 5812 5813 5814 5815 5816 5818 5820 5822 5824 5826 5829 5832 5835 5838 5842 5846 5850 5855 5860 5865 5870 5875 5880 5885 5889
5833 5831 5829 5826 5824 5822 5820 5818 5816 5814 5812 5810 5808 5807 5806 5806 5805 5804 5804 5804 5805 5807 5808 5809 5811 5814 5816 5818 5821 5823 5827 5830 5833 5837 5842 5846 5851 5856 5862 5867 5872 5877 5881
5829 5826 5824 5822 5819 5817 5815 5812 5810 5808 5805 5803 5801 5800 5798 5797 5797 5796 5796 5796 5796 5797 5798 5800 5802 5805 5807 5809 5811 5814 5817 5821 5824 5828 5833 5837 5842 5847 5852 5857 5863 5868 5873
5824 5821 5819 5816 5813 5811 5808 5806 5803 5801 5798 5796 5793 5791 5790 5788 5787 5786 5786 5786 5787 5787 5788 5790 5792 5795 5798 5800 5802 5805 5808 5812 5816 5819 5823 5828 5833 5838 5843 5848 5853 5859 5864
5819 5816 5814 5811 5808 5805 5802 5799 5796 5793 5790 5787 5785 5782 5780 5778 5777 5776 5776 5775 5776 5777 5778 5778 5780 5784 5787 5790 5793 5796 5799 5803 5806 5810 5814 5819 5823 5828 5833 5838 5844 5849 5855
5814 5811 5807 5804 5801 5798 5794 5791 5787 5784 5780 5777 5774 5772 5769 5767 5766 5765 5764 5764 5764 5765 5766 5767 5768 5771 5775 5779 5782 5786 5789 5792 5796 5800 5804 5809 5813 5818 5823 5829 5834 5840 5845
5809 5805 5801 5798 5794 5790 5786 5781 5777 5773 5770 5766 5763 5760 5757 5755 5753 5752 5751 5751 5751 5752 5754 5755 5756 5758 5762 5767 5771 5774 5778 5782 5786 5790 5795 5799 5804 5808 5813 5819 5824 5830 5835
5804 5800 5795 5791 5786 5781 5777 5772 5767 5763 5758 5754 5750 5747 5745 5742 5741 5739 5738 5738 5738 5739 5741 5743 5744 5746 5750 5754 5758 5762 5767 5771 5775 5779 5784 5789 5794 5798 5803 5809 5814 5820 5826
5797 5793 5788 5783 5778 5773 5767 5762 5757 5752 5747 5742 5738 5735 5732 5730 5728 5727 5726 5725 5725 5726 5728 5730 5732 5734 5737 5741 5746 5750 5755 5760 5764 5769 5773 5778 5784 5788 5794 5799 5804 5810 5816
5791 5786 5780 5775 5769 5763 5758 5752 5746 5741 5735 5731 5727 5723 5720 5718 5716 5714 5714 5713 5713 5714 5715 5717 5720 5722 5725 5728 5733 5737 5742 5747 5753 5758 5763 5768 5773 5778 5783 5789 5794 5800 5806
5783 5778 5772 5766 5760 5754 5748 5742 5736 5730 5725 5720 5716 5712 5709 5707 5705 5703 5702 5702 5702 5702 5703 5705 5707 5710 5713 5716 5720 5724 5730 5735 5741 5746 5752 5758 5763 5769 5773 5779 5784 5790 5795
5775 5770 5764 5757 5751 5744 5738 5732 5725 5720 5715 5710 5706 5702 5699 5696 5694 5693 5691 5691 5691 5691 5692 5693 5696 5698 5701 5704 5707 5712 5717 5724 5730 5736 5740 5746 5752 5758 5763 5769 5774 5780 5785
5766 5760 5754 5748 5741 5734 5728 5721 5715 5710 5705 5700 5696 5692 5689 5686 5684 5683 5681 5681 5680 5680 5681 5682 5684 5686 5688 5692 5696 5701 5705 5710 5717 5723 5729 5735 5741 5747 5753 5759 5764 5770 5776
5757 5751 5744 5738 5731 5724 5717 5711 5705 5700 5695 5690 5686 5682 5679 5677 5674 5673 5672 5671 5670 5670 5670 5671 5673 5674 5676 5679 5683 5688 5693 5699 5705 5711 5717 5724 5730 5737 5743 5748 5754 5760 5766
5746 5740 5734 5727 5720 5714 5707 5701 5695 5690 5686 5681 5677 5673 5670 5667 5665 5663 5662 5661 5660 5659 5659 5660 5662 5663 5664 5667 5671 5676 5681 5687 5694 5700 5706 5713 5719 5726 5732 5738 5744 5751 5757
5735 5729 5723 5716 5710 5703 5696 5691 5685 5681 5676 5672 5668 5664 5661 5658 5656 5654 5652 5651 5650 5649 5648 5649 5650 5651 5653 5656 5659 5664 5669 5675 5682 5689 5695 5702 5708 5715 5722 5728 5734 5741 5747